[[{"header":{"parameterUnit":"m.s-1","parameterCategory":1,"la1":30.2991,"la2":30.254,"lo1":-89.0895,"lo2":-89.0444,"dy":0.0017,"dx":0.0017,"nx":28,"ny":28,"refTime":"2025-08-27T03:00:00:Z","depth":0,"parameterNumber":2,"parameterNumberName":"U-component_of_WINDS"},"data":[0,0,0,0,0,0,0,0,0,0,0,0,0,0,0,0,0,0,0,0,0,0,0,0,0,0,0,0,0,0,0,0,0,0,0,0,0,0,0,0,0,0,0,0,0,0,0,0,0,0,0,0,0,0,0,0,0,0,-0.6836,-0.6837,0,-0.694,-0.6941,-0.6942,-0.6986,-0.6986,-0.6986,-0.6986,-0.7095,-0.7098,-0.7101,0,0,0,0,0,0,0,0,0,0,0,0,0,-0.6677,-0.668,-0.6836,-0.6837,-0.6839,-0.694,-0.6941,-0.6943,-0.6986,-0.6986,-0.6986,-0.6985,-0.7094,-0.7097,-0.7101,0,0,0,0,0,0,0,0,0,0,0,0,0,-0.676,-0.6681,-0.6836,-0.6873,-0.6877,-0.6939,-0.6941,-0.6943,-0.6986,-0.6986,-0.6986,-0.6985,-0.7092,-0.7097,-0.7101,-0.7136,0,0,-0.7116,-0.7118,0,0,0,0,0,0,0,0,-0.6756,-0.6766,-0.6866,-0.687,-0.6875,-0.695,-0.6925,-0.7008,-0.6986,-0.6945,-0.6986,-0.6985,-0.7047,-0.7055,-0.7075,-0.7141,-0.7146,-0.7116,-0.7119,-0.7121,-0.7122,0,0,0,0,0,0,0,-0.675,-0.6762,-0.6877,-0.6867,-0.6873,-0.6884,-0.6896,-0.6941,-0.6996,-0.6948,-0.6952,-0.6963,-0.7049,-0.7071,-0.7078,-0.7147,-0.7116,-0.712,-0.7123,-0.7125,-0.7246,-0.7246,0,0,0,0,0,0,-0.6738,-0.6757,-0.6874,-0.688,-0.6813,-0.6887,-0.69,-0.6926,-0.6996,-0.7006,-0.6963,-0.6965,-0.7063,-0.7073,-0.7082,-0.7127,-0.7121,-0.7125,-0.7128,-0.7246,-0.7246,-0.7247,0,0,0,0,0,0,-0.6734,-0.6748,-0.687,-0.682,-0.6836,-0.689,-0.6919,-0.6928,-0.695,-0.7007,-0.7018,-0.6975,-0.7063,-0.7076,-0.7122,-0.7131,-0.7127,-0.7131,-0.7245,-0.7246,-0.7246,-0.7216,0,0,0,0,0,0,-0.6729,-0.6746,-0.676,-0.6819,-0.6838,-0.6907,-0.692,-0.6931,-0.6957,-0.696,-0.7021,-0.7031,-0.7064,-0.7115,-0.7126,-0.7138,-0.7135,-0.7244,-0.7245,-0.7246,-0.7217,-0.7216,-0.7215,0,0,0,0,0,-0.6724,-0.6748,-0.676,-0.6774,-0.6856,-0.6908,-0.6919,-0.6955,-0.6958,-0.6972,-0.7009,-0.7029,-0.7128,-0.7119,-0.7133,-0.7145,-0.7244,-0.7245,-0.7246,-0.7217,-0.7216,-0.7215,0,0,0,0,0,0,-0.6689,-0.6756,-0.6771,-0.6815,-0.6855,-0.6915,-0.6934,-0.6953,-0.6994,-0.6995,-0.704,-0.7053,-0.7096,-0.7125,-0.7114,-0.7182,-0.7188,-0.7191,-0.7161,-0.7161,-0.716,-0.7152,-0.7139,0,0,0,0,0,-0.6686,-0.6722,-0.6779,-0.6813,-0.6832,-0.6879,-0.6903,-0.6927,-0.6971,-0.6989,-0.7029,-0.7071,-0.7112,-0.7138,-0.7179,-0.7221,-0.7235,-0.7237,-0.7236,-0.7235,-0.7238,-0.7262,-0.7263,-0.725,-0.725,-0.725,0,0,-0.6682,-0.6723,-0.6743,-0.6807,-0.6841,-0.6876,-0.6893,-0.6931,-0.6958,-0.6995,-0.7041,-0.7071,-0.7122,-0.7166,-0.7187,-0.7192,-0.7244,-0.7236,-0.7235,-0.7238,-0.7263,-0.7264,-0.7265,-0.725,-0.725,-0.725,0,0,-0.6691,-0.6726,-0.6757,-0.679,-0.6841,-0.6872,-0.6879,-0.6936,-0.6958,-0.7004,-0.7032,-0.7065,-0.7135,-0.7169,-0.7195,-0.7216,-0.7236,-0.7228,-0.7224,-0.7247,-0.7248,-0.725,-0.7257,-0.7259,-0.7231,-0.7231,-0.7231,0,-0.6679,-0.6734,-0.6771,-0.6807,-0.6834,-0.6867,-0.6899,-0.693,-0.6992,-0.701,-0.7014,-0.7101,-0.7137,-0.7189,-0.7194,-0.7215,-0.7225,-0.7222,-0.7245,-0.7247,-0.7248,-0.7256,-0.7258,-0.723,-0.723,-0.723,-0.723,0,-0.6716,-0.6754,-0.6773,-0.683,-0.686,-0.6893,-0.6936,-0.6961,-0.6983,-0.7014,-0.706,-0.7104,-0.7154,-0.7169,-0.7191,-0.7224,-0.7225,-0.7236,-0.7243,-0.7247,-0.7255,-0.7258,-0.7228,-0.7228,-0.7229,-0.7229,0,0,-0.6708,-0.6784,-0.6791,-0.6817,-0.6874,-0.6904,-0.6939,-0.6987,-0.7008,-0.7049,-0.7079,-0.7136,-0.7147,-0.7177,-0.7203,-0.7223,-0.7236,-0.7232,-0.7234,-0.7231,-0.7275,-0.7266,-0.7269,-0.725,-0.725,-0.7251,-0.7271,0,-0.6726,-0.6789,-0.6823,-0.6872,-0.6907,-0.6938,-0.6969,-0.7008,-0.7037,-0.7071,-0.7104,-0.7144,-0.7155,-0.7173,-0.7194,-0.723,-0.7246,-0.7229,-0.7279,-0.728,-0.7265,-0.7273,-0.7264,-0.7281,-0.7274,-0.7275,-0.7275,0,-0.6755,-0.6793,-0.6846,-0.6898,-0.6914,-0.6941,-0.6987,-0.7019,-0.7063,-0.7083,-0.7116,-0.7141,-0.718,-0.7183,-0.7237,-0.7225,-0.7247,-0.7268,-0.7269,-0.7276,-0.7278,-0.728,-0.7287,-0.729,-0.728,-0.728,-0.7279,0,-0.6743,-0.6809,-0.6848,-0.6869,-0.6932,-0.695,-0.6977,-0.7021,-0.7047,-0.7087,-0.7104,-0.7149,-0.7173,-0.7207,-0.7244,-0.7243,-0.7294,-0.7301,-0.7312,-0.7311,-0.7322,-0.7321,-0.7334,-0.7336,-0.7336,-0.7336,-0.7336,0,-0.6759,-0.6789,-0.6843,-0.6868,-0.6903,-0.6942,-0.6976,-0.7005,-0.7044,-0.7075,-0.7105,-0.7134,-0.7181,-0.7215,-0.7245,-0.7284,-0.7295,-0.7313,-0.732,-0.731,-0.7308,-0.7326,-0.7326,-0.7337,-0.7337,-0.7337,-0.7336,0,-0.6752,-0.6789,-0.6834,-0.6889,-0.6903,-0.6927,-0.6974,-0.6999,-0.7029,-0.7068,-0.7079,-0.7127,-0.7169,-0.7209,-0.7266,-0.7286,-0.7326,-0.7336,-0.731,-0.7314,-0.7324,-0.7322,-0.7348,-0.7354,-0.7352,-0.7352,-0.7352,0,-0.6759,-0.6783,-0.684,-0.6862,-0.6888,-0.6924,-0.695,-0.6989,-0.7015,-0.7067,-0.7086,-0.713,-0.7167,-0.7233,-0.7273,-0.7317,-0.7328,-0.7334,-0.7335,-0.7323,-0.7328,-0.7326,-0.7329,-0.7333,-0.7333,-0.7333,-0.7333,0,-0.6769,-0.6786,-0.6822,-0.6864,-0.6894,-0.693,-0.6966,-0.6983,-0.7029,-0.7057,-0.71,-0.7128,-0.7185,-0.7229,-0.7276,-0.7305,-0.7327,-0.7332,-0.7337,-0.7327,-0.7311,-0.732,-0.7308,-0.7331,-0.7331,-0.7332,-0.7332,-0.7332,-0.677,-0.6792,-0.6835,-0.6874,-0.6905,-0.6938,-0.6964,-0.6997,-0.7033,-0.7081,-0.7102,-0.7145,-0.7189,-0.7255,-0.7283,-0.7318,-0.7323,-0.733,-0.7332,-0.7334,-0.7331,-0.7305,-0.7327,-0.7327,-0.7327,-0.7327,-0.7327,0,-0.678,-0.6809,-0.6844,-0.6894,-0.6924,-0.6941,-0.6982,-0.7007,-0.7044,-0.7082,-0.7117,-0.7166,-0.7208,-0.7251,-0.7295,-0.7315,-0.7326,-0.7325,-0.7324,-0.7331,-0.7324,-0.7315,-0.7316,-0.7316,-0.7316,-0.7316,-0.7316,-0.7316,-0.6789,-0.6828,-0.685,-0.6904,-0.6933,-0.6975,-0.6997,-0.7028,-0.7058,-0.7111,-0.7145,-0.7172,-0.7213,-0.726,-0.7299,-0.7311,-0.7326,-0.7323,-0.7337,-0.733,-0.7331,-0.7332,-0.7324,-0.7326,-0.7326,-0.7341,-0.7341,-0.7341]},{"header":{"parameterUnit":"m.s-1","parameterCategory":1,"la1":30.2991,"la2":30.254,"lo1":-89.0895,"lo2":-89.0444,"dy":0.0017,"dx":0.0017,"nx":28,"ny":28,"refTime":"2025-08-27T03:00:00:Z","depth":0,"parameterNumber":3,"parameterNumberName":"V-component_of_WINDS"},"data":[0,0,0,0,0,0,0,0,0,0,0,0,0,0,0,0,0,0,0,0,0,0,0,0,0,0,0,0,0,0,0,0,0,0,0,0,0,0,0,0,0,0,0,0,0,0,0,0,0,0,0,0,0,0,0,0,0,0,-2.3378,-2.3378,0,-2.3366,-2.3366,-2.3366,-2.3316,-2.3315,-2.3314,-2.3313,-2.3301,-2.3302,-2.3303,0,0,0,0,0,0,0,0,0,0,0,0,0,-2.3358,-2.3359,-2.3378,-2.3378,-2.3377,-2.3366,-2.3366,-2.3366,-2.3317,-2.3315,-2.3314,-2.3312,-2.3301,-2.3302,-2.3303,0,0,0,0,0,0,0,0,0,0,0,0,0,-2.3358,-2.3359,-2.3378,-2.3352,-2.3349,-2.3366,-2.3366,-2.3365,-2.3317,-2.3315,-2.3313,-2.3312,-2.3301,-2.3302,-2.3303,-2.3344,0,0,-2.3306,-2.3307,0,0,0,0,0,0,0,0,-2.3359,-2.3359,-2.3356,-2.3353,-2.3351,-2.3341,-2.3354,-2.3358,-2.3317,-2.3329,-2.3313,-2.3311,-2.3316,-2.3316,-2.3317,-2.3344,-2.3343,-2.3307,-2.3307,-2.3308,-2.3308,0,0,0,0,0,0,0,-2.3359,-2.3359,-2.3373,-2.3356,-2.3353,-2.334,-2.3339,-2.3355,-2.3332,-2.3328,-2.3324,-2.3324,-2.3314,-2.3316,-2.3317,-2.3343,-2.3306,-2.3307,-2.3308,-2.3309,-2.3401,-2.3403,0,0,0,0,0,0,-2.3362,-2.336,-2.3373,-2.3373,-2.335,-2.3342,-2.334,-2.3346,-2.3332,-2.3328,-2.3325,-2.3321,-2.3315,-2.3315,-2.3316,-2.3362,-2.3308,-2.3309,-2.3309,-2.3399,-2.3402,-2.3404,0,0,0,0,0,0,-2.3362,-2.3364,-2.3374,-2.3365,-2.3366,-2.3344,-2.3351,-2.3346,-2.3348,-2.333,-2.3325,-2.3331,-2.3314,-2.3314,-2.3337,-2.3361,-2.3309,-2.331,-2.3397,-2.34,-2.3403,-2.3455,0,0,0,0,0,0,-2.3362,-2.3364,-2.338,-2.3366,-2.3366,-2.3395,-2.3353,-2.3347,-2.335,-2.3345,-2.3334,-2.3331,-2.3312,-2.3336,-2.3338,-2.3362,-2.3311,-2.3395,-2.3399,-2.3402,-2.3451,-2.3459,-2.3466,0,0,0,0,0,-2.3361,-2.3395,-2.3381,-2.3383,-2.3385,-2.3397,-2.3397,-2.3375,-2.3353,-2.3368,-2.3356,-2.3331,-2.3358,-2.3339,-2.3341,-2.3365,-2.3394,-2.3398,-2.3402,-2.3448,-2.3458,-2.3466,0,0,0,0,0,0,-2.3413,-2.3393,-2.3377,-2.3407,-2.3404,-2.3389,-2.3407,-2.3386,-2.339,-2.3385,-2.3357,-2.3355,-2.3382,-2.3376,-2.3354,-2.3403,-2.3372,-2.3376,-2.3406,-2.3415,-2.3423,-2.3423,-2.3312,0,0,0,0,0,-2.3428,-2.3439,-2.3421,-2.345,-2.3449,-2.3429,-2.3433,-2.3416,-2.3412,-2.341,-2.34,-2.3397,-2.3404,-2.341,-2.3416,-2.3451,-2.3447,-2.3468,-2.3476,-2.3482,-2.3486,-2.3503,-2.3512,-2.3417,-2.3417,-2.3417,0,0,-2.3459,-2.3449,-2.3458,-2.346,-2.3456,-2.3467,-2.3428,-2.3442,-2.3451,-2.3412,-2.3433,-2.3425,-2.342,-2.3449,-2.3461,-2.3444,-2.3512,-2.3487,-2.3493,-2.3493,-2.3508,-2.3517,-2.3525,-2.3419,-2.3419,-2.3419,0,0,-2.3521,-2.3515,-2.3538,-2.3534,-2.3528,-2.3514,-2.3519,-2.3507,-2.35,-2.352,-2.3491,-2.3501,-2.3515,-2.3512,-2.3512,-2.3573,-2.355,-2.3576,-2.3615,-2.3631,-2.3639,-2.3645,-2.3666,-2.3673,-2.358,-2.358,-2.358,0,-2.356,-2.3576,-2.3552,-2.3568,-2.357,-2.3536,-2.3558,-2.3556,-2.3552,-2.3553,-2.3535,-2.3551,-2.3545,-2.3572,-2.3587,-2.3589,-2.3594,-2.3576,-2.364,-2.3646,-2.3652,-2.3671,-2.3679,-2.3583,-2.3583,-2.3583,-2.3582,0,-2.3624,-2.3636,-2.3655,-2.3652,-2.3655,-2.3675,-2.3653,-2.366,-2.3643,-2.3631,-2.3652,-2.3643,-2.3647,-2.3652,-2.3636,-2.3677,-2.3666,-2.3645,-2.3612,-2.3664,-2.3681,-2.3689,-2.3588,-2.3587,-2.3586,-2.3585,0,0,-2.3718,-2.37,-2.3707,-2.3705,-2.3695,-2.3704,-2.3722,-2.3724,-2.373,-2.3729,-2.3742,-2.3755,-2.3734,-2.3735,-2.3718,-2.3733,-2.378,-2.3709,-2.3708,-2.3721,-2.3822,-2.3838,-2.3846,-2.3765,-2.3766,-2.3767,-2.3822,0,-2.3775,-2.3804,-2.3783,-2.3815,-2.3825,-2.3793,-2.3808,-2.3804,-2.3793,-2.38,-2.3788,-2.3797,-2.377,-2.377,-2.3783,-2.3771,-2.3799,-2.3767,-2.3777,-2.3777,-2.3777,-2.3856,-2.3872,-2.3924,-2.3829,-2.383,-2.3831,0,-2.3846,-2.3847,-2.388,-2.3867,-2.3871,-2.3885,-2.3885,-2.3893,-2.3887,-2.3878,-2.3879,-2.3858,-2.3874,-2.3843,-2.3864,-2.3843,-2.3846,-2.384,-2.3842,-2.3841,-2.3806,-2.3855,-2.394,-2.3947,-2.3842,-2.3841,-2.384,0,-2.3909,-2.3919,-2.3939,-2.3939,-2.3925,-2.3935,-2.393,-2.3922,-2.3925,-2.3926,-2.3927,-2.393,-2.3931,-2.3934,-2.3914,-2.3894,-2.3938,-2.3905,-2.393,-2.3931,-2.394,-2.3939,-2.4025,-2.3944,-2.3944,-2.3944,-2.3944,0,-2.3975,-2.3996,-2.3967,-2.398,-2.4002,-2.3978,-2.4001,-2.3992,-2.3986,-2.3996,-2.3969,-2.3979,-2.3954,-2.3961,-2.3946,-2.3965,-2.3967,-2.396,-2.3955,-2.3961,-2.3962,-2.3961,-2.3957,-2.3946,-2.3946,-2.3945,-2.3945,0,-2.4048,-2.403,-2.405,-2.4035,-2.4032,-2.4049,-2.4036,-2.4047,-2.4035,-2.4048,-2.4049,-2.403,-2.4037,-2.4018,-2.4023,-2.4013,-2.404,-2.4031,-2.4042,-2.4038,-2.4064,-2.4061,-2.4151,-2.4161,-2.4076,-2.4077,-2.4077,0,-2.4091,-2.4106,-2.4092,-2.4097,-2.4093,-2.4101,-2.4103,-2.408,-2.4084,-2.4078,-2.409,-2.4095,-2.4097,-2.4111,-2.4097,-2.41,-2.409,-2.4121,-2.409,-2.4095,-2.4088,-2.4087,-2.4088,-2.4127,-2.4128,-2.4129,-2.413,0,-2.4167,-2.4157,-2.4161,-2.4163,-2.4166,-2.4166,-2.4164,-2.417,-2.4145,-2.415,-2.4157,-2.4159,-2.4164,-2.4169,-2.4169,-2.4164,-2.4142,-2.414,-2.4145,-2.4151,-2.4156,-2.4152,-2.4058,-2.4137,-2.4137,-2.4136,-2.4136,-2.4135,-2.4225,-2.4236,-2.4228,-2.4234,-2.423,-2.4229,-2.4238,-2.4226,-2.4232,-2.4233,-2.4219,-2.4229,-2.4222,-2.422,-2.4217,-2.4224,-2.421,-2.4218,-2.422,-2.4222,-2.4226,-2.4156,-2.4225,-2.4224,-2.4224,-2.4224,-2.4224,0,-2.4298,-2.4292,-2.4297,-2.4295,-2.4299,-2.4279,-2.4276,-2.4281,-2.4289,-2.4285,-2.4288,-2.4295,-2.43,-2.4287,-2.429,-2.4298,-2.4288,-2.4299,-2.4297,-2.4296,-2.4239,-2.4233,-2.4307,-2.4307,-2.4307,-2.4307,-2.4307,-2.4307,-2.4337,-2.4355,-2.4344,-2.436,-2.4353,-2.4362,-2.4361,-2.436,-2.4356,-2.4366,-2.4369,-2.4361,-2.4353,-2.4354,-2.4358,-2.4354,-2.4355,-2.437,-2.4362,-2.4309,-2.4301,-2.4293,-2.4287,-2.4371,-2.4371,-2.4418,-2.4419,-2.4419]}]]